Location: Cahas Mountain Overlook
(37.0833°N, 80.1000°W)
Time: 02:25:38
(UTC-05:00)

SR - Visible Passes

Search period start: 15 February 2026 00:00
Search period end: 25 February 2026 00:00
Orbit: 574 x 847 km, 66.7° (Epoch: 13 February)

Date Brightness Start Highest point End Pass type
(mag) Time Alt. Az. Time Alt. Az. Time Alt. Az.
15 Feb ? 05:34:05 50° W 05:34:39 54° WNW 05:38:54 10° NNE visible
16 Feb ? 04:41:23 32° NE 04:41:23 32° NE 04:43:57 10° NE visible
16 Feb ? 06:20:29 13° WNW 06:21:46 14° NW 06:24:10 10° NNW visible
17 Feb ? 05:27:34 28° NNW 05:27:34 28° NNW 05:30:24 10° N visible
18 Feb ? 04:34:31 19° NNE 04:34:31 19° NNE 04:35:46 10° NNE visible
19 Feb ? 05:20:24 16° NNW 05:20:24 16° NNW 05:21:42 10° N visible
20 Feb ? 04:27:08 12° NNE 04:27:08 12° NNE 04:27:25 10° NNE visible
